Helicity
62 93 144 179 234 278 280 284 274 246 247 245 225 192 181 170 142 112 95 88 92 82 80 79 87 90 128 157 222 171 214 189 115 44 31 57 74 86 95 98 70 76 56 30 40 34 64
249 231 256 295 306 323 259 241 280 269 266 204 206 184 190 195 197 182 174 175 170 146 124 107 97 107 218 201 189 69 77 120 157 109 73 43 83 54 113 143 166 132 118 151 121 101 68
265 307 321 343 322 317 191 206 139 153 179 260 242 215 196 214 214 199 218 200 197 201 199 181 152 186 250 335 270 114 17 39 54 71 101 87 66 127 179 165 135 194 177 153 154 157 124
273 215 256 266 223 161 150 165 179 210 243 254 236 217 223 250 227 237 240 214 205 205 171 168 197 223 275 207 151 138 129 221 104 76 84 67 59 67 161 158 165 203 163 163 161 108 110
238 190 243 202 148 173 197 198 188 187 202 218 205 194 193 189 190 208 208 196 163 146 156 127 175 198 232 273 135 164 134 157 148 109 119 107 138 193 212 218 254 288 208 124 137 112 103
142 148 166 162 132 146 165 179 178 174 164 164 161 166 173 181 184 185 184 155 114 108 109 132 236 272 331 237 193 89 85 48 109 134 94 135 250 208 276 360 385 314 379 318 192 142 40
139 142 137 131 146 159 150 145 145 147 139 133 136 131 126 124 126 137 136 111 91 118 128 263 248 237 201 132 31 111 50 41 16 -24 125 152 288 411 369 360 251 227 189 162 159 80 67
127 114 116 139 152 155 152 144 142 141 144 136 125 127 124 111 97 76 88 113 255 265 266 262 213 238 198 141 204 206 327 163 167 128 83 170 321 269 287 343 314 241 184 108 95 73 47
140 141 144 143 141 156 157 151 145 136 125 113 100 95 92 82 63 38 61 145 123 63 226 174 172 163 140 125 166 163 318 314 163 169 144 217 240 186 253 271 273 271 209 197 139 111 91
137 129 124 118 121 125 124 111 95 89 75 65 62 57 54 54 16 125 71 76 37 -27 214 220 124 3 89 90 125 166 129 267 369 139 159 258 121 238 303 275 298 211 208 100 104 127 175
132 124 120 108 81 53 45 43 36 31 33 47 47 38 28 19 32 89 113 137 38 41 356 130 -30 -13 -22 26 15 69 112 195 197 219 271 191 321 186 237 261 186 252 123 131 57 117 126
98 90 70 50 37 27 13 13 27 39 38 21 2 7 27 32 33 13 82 78 37 194 421 194 14 124 116 75 59 31 15 161 115 115 162 145 116 18 23 110 101 67 164 71 163 158 192
74 61 38 15 3 21 41 35 23 9 1 7 23 29 34 36 47 17 28 44 139 287 141 67 82 163 175 24 18 42 67 77 149 146 125 106 102 123 139 109 49 106 86 224 140 269 367
49 24 11 29 42 37 20 2 -2 6 12 20 15 4 11 -6 10 33 27 62 176 147 49 53 75 40 69 118 -99 -35 -108 -11 -23 43 231 179 155 113 138 94 162 153 152 441 265 267 278
13 27 43 43 35 20 10 6 8 8 0 9 0 26 23 40 51 38 34 119 143 45 13 60 76 73 143 93 42 41 89 48 13 129 61 121 146 285 416 272 175 56 132 90 197 287 308
47 45 37 33 38 32 9 -12 1 8 6 25 35 2 34 70 67 54 75 55 28 -24 -8 41 82 34 103 133 68 -53 84 -14 -46 -117 -102 21 32 -4 170 306 299 228 174 196 267 242 197
36 33 42 41 30 7 -19 3 23 11 -1 27 17 44 82 48 76 59 64 59 16 -10 23 55 67 67 79 81 106 74 -16 -68 -25 -79 -134 -145 -71 -31 -37 -31 -23 315 247 300 302 205 514
50 43 34 15 -1 -13 1 17 20 9 2 -1 52 68 112 64 67 68 49 37 24 2 -4 11 11 23 20 87 32 34 8 21 -67 -60 -149 -111 -137 -77 -16 -100 -129 -53 -8 160 156 208 157
23 22 -5 -14 -9 1 3 16 15 25 24 31 73 35 121 93 67 42 16 11 19 17 21 28 11 23 36 29 25 51 39 -4 6 9 16 -27 -206 -169 -83 -146 -94 -98 -76 -114 -71 -7 68
12 -8 -15 2 13 14 23 41 36 29 25 36 84 67 78 110 55 37 17 18 25 22 30 4 23 34 33 33 65 32 79 24 -6 -19 -6 35 0 -15 -15 101 81 35 25 -10 27 -37 37
-16 -18 -11 1 18 9 21 34 35 32 34 48 74 82 50 95 48 16 -3 12 8 19 12 18 1 12 28 10 50 80 47 25 29 21 44 39 66 130 162 210 214 223 31 -44 -66 -27 -47
-6 1 11 19 24 4 12 30 34 30 40 59 83 94 101 62 55 16 -4 39 12 15 22 28 27 34 -1 -15 -12 69 114 103 60 24 82 47 72 202 117 39 63 153 210 44 -53 -46 -16
10 9 10 23 31 28 29 27 27 24 33 56 70 80 127 111 59 48 16 29 3 10 26 17 26 19 29 23 -18 -8 12 61 50 36 35 36 48 64 140 61 43 45 40 10 17 13 -28
22 34 40 54 39 32 26 21 18 17 10 27 42 92 137 113 67 42 12 43 13 0 15 22 -7 12 -20 -35 -26 -15 -2 1 18 14 1 8 29 27 -15 35 -9 1 34 54 44 55 77
31 38 43 50 27 21 18 13 12 5 -4 19 46 89 129 132 38 40 12 12 1 -4 13 11 6 7 -9 7 1 11 -2 -27 -28 -34 -39 -41 -3 24 21 21 76 46 115 56 15 125 204
41 46 41 45 25 19 10 0 1 -2 -3 13 34 59 134 114 93 22 25 29 23 -6 9 -2 -18 39 19 18 9 19 13 44 41 31 62 51 16 50 19 50 32 109 152 103 117 123 223
45 44 42 43 26 19 13 6 -1 -1 -2 14 33 45 97 139 66 51 40 65 43 17 33 -12 35 -9 -11 -15 -2 5 10 14 -9 14 25 25 31 10 13 22 46 76 83 101 74 99 117
35 36 38 36 25 15 9 5 -1 -10 -2 8 13 33 54 110 74 35 38 37 17 -6 -7 -5 -5 -36 -14 10 6 -1 -3 4 -7 3 -6 17 29 17 18 13 28 143 58 90 77 76 91
24 26 30 29 25 15 6 -1 -3 -7 -11 -1 13 36 59 84 107 10 45 55 81 16 -1 -10 11 -8 -1 -7 0 5 55 13 11 -5 42 5 14 29 -22 -12 35 49 68 49 67 72 85
Wind_Speed
47 49 42 39 42 42 48 51 51 54 56 62 66 67 69 72 77 80 82 83 80 78 75 73 69 66 63 76 78 55 58 62 54 50 48 48 54 53 61 59 61 64 62 70 76 70 73
31 34 35 37 40 43 48 49 50 52 58 59 61 65 70 72 75 78 82 81 80 78 75 74 70 64 70 97 76 74 80 79 67 57 53 49 51 51 62 62 67 72 79 96 94 92 95
27 29 33 37 44 48 45 50 50 51 57 61 62 67 69 72 74 76 80 82 80 82 80 77 72 69 82 95 72 64 62 68 65 61 65 56 55 61 62 75 73 77 80 92 83 88 89
27 27 34 39 40 39 41 44 48 55 59 63 64 66 69 74 76 77 82 83 85 82 81 81 78 79 102 92 84 87 92 86 74 67 70 67 65 74 81 88 89 79 73 82 72 68 71
23 28 33 36 36 42 42 45 50 53 56 61 64 66 70 73 78 81 85 87 89 88 80 77 79 75 101 74 75 75 69 83 82 83 74 78 78 88 91 83 80 71 77 74 76 56 82
26 31 30 32 34 38 43 46 50 56 60 63 67 69 74 80 82 86 90 95 91 84 76 73 76 84 83 88 75 73 69 74 73 76 86 86 77 87 85 79 89 75 78 76 87 73 73
22 26 29 28 32 37 41 45 50 55 59 62 68 73 77 82 85 87 91 87 87 81 73 91 87 96 103 81 72 69 59 66 84 87 89 79 84 85 100 82 86 85 86 81 77 72 68
20 24 28 33 36 39 43 46 49 55 61 66 69 72 74 78 80 80 76 77 72 73 112 100 113 120 114 102 113 90 66 76 76 95 87 88 100 105 73 75 79 81 87 93 97 88 86
23 25 31 37 40 44 48 50 53 55 59 63 67 71 74 78 81 72 66 70 59 70 96 126 108 109 111 99 119 115 84 97 101 92 102 105 100 90 85 81 84 87 86 89 89 83 89
24 29 35 40 42 44 46 49 52 54 57 61 65 68 71 77 68 67 73 51 56 60 101 121 111 103 99 98 119 102 102 99 104 125 109 110 116 106 95 96 85 93 78 85 88 79 90
28 31 35 40 43 45 46 48 51 53 57 61 65 67 69 63 64 64 66 57 55 57 120 77 72 56 60 75 92 94 89 96 120 121 101 102 74 95 109 93 79 95 70 80 81 86 88
28 30 33 36 40 43 47 50 52 55 58 62 63 62 64 59 50 49 57 60 53 77 108 77 74 62 70 74 78 82 84 80 100 121 120 128 127 111 113 104 90 91 92 98 97 91 103
26 30 33 37 39 44 48 52 55 57 58 56 59 58 55 54 59 58 55 56 71 82 64 75 69 80 85 75 69 63 75 83 91 105 125 125 128 120 111 115 105 97 92 92 96 102 107
27 30 32 37 42 47 51 51 53 55 56 57 55 54 51 44 41 48 50 55 73 64 66 80 87 99 84 89 79 71 73 68 76 77 86 106 122 109 111 121 106 90 93 92 89 73 86
27 30 34 38 42 49 50 52 52 53 51 48 54 51 46 47 30 40 48 58 61 65 72 75 85 77 71 57 60 68 71 58 52 52 60 73 83 73 73 80 100 119 120 111 112 92 86
30 33 36 41 45 47 52 48 45 45 52 49 53 56 52 35 34 41 47 52 59 63 71 77 80 68 83 81 72 64 62 56 60 53 48 52 71 55 65 64 67 82 90 94 87 96 109
32 36 40 43 45 47 43 36 41 49 49 46 50 58 45 37 39 43 49 48 60 63 63 69 78 84 87 89 85 81 63 64 57 57 53 57 57 64 57 50 53 55 63 71 74 76 99
37 40 43 42 40 38 34 37 45 49 50 43 50 63 40 38 48 42 44 49 59 73 75 73 71 78 80 84 84 83 86 67 61 62 67 62 68 77 76 59 54 56 54 58 72 70 57
37 41 37 36 36 36 36 41 44 49 49 49 54 50 38 36 47 49 50 61 66 60 64 73 70 72 74 72 68 63 59 56 59 62 62 64 66 82 75 60 54 66 61 56 50 51 60
38 34 33 36 39 40 42 46 48 47 44 45 50 54 43 36 34 40 54 54 59 63 71 64 68 63 68 70 73 70 69 54 57 52 53 54 54 62 78 71 60 55 49 47 54 66 54
32 31 32 34 38 40 43 45 48 47 43 41 45 46 45 47 47 39 48 59 60 65 64 64 56 56 53 54 60 67 54 53 49 40 45 46 57 55 60 62 66 70 60 51 55 54 60
33 34 35 36 38 38 41 44 46 45 40 39 42 46 44 40 39 31 32 33 14 42 58 63 68 64 61 51 49 62 49 45 43 42 46 43 52 60 63 56 59 61 67 66 62 58 59
34 35 36 38 40 42 44 45 45 41 35 36 36 35 39 41 38 35 36 45 29 63 49 58 62 60 60 60 58 58 61 62 62 62 61 60 60 65 69 55 56 65 57 59 62 52 50
34 37 39 40 41 43 45 44 40 40 36 27 28 33 39 43 35 37 36 52 50 68 72 57 60 63 62 62 63 67 69 66 63 64 61 65 62 62 75 71 80 73 45 49 49 48 53
33 36 38 40 42 42 43 42 40 38 35 30 28 30 34 38 32 28 32 19 21 17 38 58 55 60 57 59 58 56 59 61 61 63 60 55 56 59 64 68 68 60 40 46 40 37 44
33 36 38 41 42 42 41 39 36 36 34 31 28 27 30 35 35 27 24 38 19 29 2 28 20 48 51 49 47 52 57 57 45 42 36 42 50 49 58 60 61 37 34 35 41 47 44
33 36 38 41 41 41 40 39 35 29 29 29 26 26 25 29 23 25 20 24 19 6 12 10 29 20 26 32 47 53 55 55 50 54 46 42 44 49 53 56 54 41 42 46 53 48 40
31 34 37 40 41 40 39 37 35 31 26 27 26 28 26 24 17 19 19 18 6 32 35 35 24 30 25 27 29 36 41 41 43 48 51 38 40 41 45 48 56 42 37 42 33 33 40
30 33 36 38 39 38 36 34 32 29 25 22 22 23 21 19 16 11 6 2 7 10 32 38 30 32 29 29 26 23 25 22 31 42 39 33 38 41 36 41 34 29 25 32 36 40 46
Wind_Direction
279 282 287 292 298 307 306 308 307 307 307 306 307 306 304 303 300 298 298 297 297 296 296 296 296 297 298 287 277 285 303 311 309 298 283 276 275 278 278 283 284 279 282 285 289 288 290
284 286 291 298 305 312 311 311 312 308 309 311 314 309 307 306 305 302 301 301 300 297 296 295 293 294 287 280 293 284 286 286 289 292 286 275 278 275 285 285 284 289 290 284 284 285 285
293 298 301 305 307 309 312 315 314 315 315 314 314 311 310 309 309 308 306 304 302 298 296 294 292 290 282 266 293 296 288 282 280 277 278 275 275 278 283 286 288 289 285 283 282 284 286
295 303 306 314 315 318 321 322 320 319 317 316 316 315 312 310 309 309 306 304 302 300 297 293 292 288 281 285 283 277 280 285 281 274 270 273 275 276 278 284 282 284 283 282 283 285 288
302 305 318 320 315 318 324 323 324 324 324 322 320 319 316 314 311 310 308 305 301 297 294 292 291 285 284 292 278 277 274 273 273 272 269 271 271 271 275 273 277 273 274 277 283 277 286
311 315 325 320 319 326 325 325 324 321 319 319 318 317 315 313 312 310 308 303 300 296 293 290 282 284 278 281 287 279 276 272 268 270 270 264 263 263 263 256 256 271 276 279 279 284 285
333 332 327 334 331 331 331 330 328 326 324 322 319 317 315 314 312 312 310 308 300 294 285 278 282 274 278 283 281 279 279 276 272 264 260 259 255 251 245 253 260 268 271 271 273 284 282
354 344 340 336 334 332 331 331 331 328 325 324 323 322 322 321 320 318 314 307 305 303 290 285 281 278 278 279 277 270 274 273 267 263 262 263 247 242 258 255 255 259 264 264 281 281 281
353 352 341 336 334 331 329 329 331 332 331 330 328 327 326 324 321 320 318 312 315 313 293 288 282 279 278 276 270 268 261 264 267 262 260 260 260 260 257 255 256 255 257 265 274 281 281
359 350 342 336 336 337 337 336 337 338 337 335 333 332 331 328 324 325 319 324 325 321 296 290 290 279 275 271 268 264 261 259 262 263 269 264 265 257 253 254 250 259 253 268 273 273 276
351 347 343 338 335 337 340 342 342 341 339 339 337 336 337 336 329 326 330 330 325 321 294 304 302 303 281 267 274 266 255 255 257 258 261 261 275 260 251 249 246 258 264 265 265 267 275
346 347 346 346 346 346 346 345 345 344 343 342 342 340 342 342 336 331 336 333 325 301 291 301 311 311 316 291 282 273 267 248 258 259 259 261 262 264 263 260 261 269 271 270 269 269 267
355 354 354 352 353 350 349 347 345 344 347 349 349 348 346 342 333 338 338 328 309 297 312 308 311 305 299 295 304 296 273 259 253 257 257 259 259 259 258 261 266 264 262 262 266 261 263
3 2 2 359 355 350 348 349 350 352 354 355 355 349 347 343 343 344 335 321 303 307 302 309 309 299 298 294 289 287 283 286 264 260 265 261 259 258 256 255 259 261 255 257 261 267 268
9 9 6 2 359 352 351 354 359 1 359 359 354 351 347 348 357 352 333 313 312 312 312 312 308 303 296 306 309 293 286 281 285 278 274 272 269 275 268 265 257 257 257 259 263 269 276
15 10 6 2 360 2 358 5 8 7 4 4 360 354 356 15 6 351 330 314 316 317 312 306 304 302 291 285 293 304 285 281 277 288 288 291 274 291 276 278 273 262 261 259 254 263 262
12 8 6 6 7 8 13 17 16 11 10 11 6 360 10 12 3 345 329 324 323 320 318 312 302 294 286 281 282 280 281 286 290 290 295 283 274 271 284 276 277 284 265 260 261 267 260
15 11 7 12 19 22 28 22 18 16 16 18 12 359 15 14 351 351 339 332 324 314 308 309 304 293 288 284 281 277 272 282 293 297 283 285 276 278 276 279 277 274 272 271 267 258 273
24 15 23 29 32 32 29 23 21 20 22 17 9 5 24 19 356 349 342 329 320 322 320 309 303 295 292 285 286 286 288 290 298 291 288 291 283 273 273 277 281 271 271 274 281 274 269
20 31 36 36 31 28 27 26 24 26 29 27 19 11 18 16 10 353 347 342 333 318 308 318 304 303 297 287 280 280 283 296 293 293 296 295 286 280 268 271 285 282 282 277 277 268 271
34 37 34 31 25 27 27 28 28 31 36 35 30 22 14 6 2 354 347 336 333 321 313 310 310 306 315 306 295 282 291 296 301 296 303 298 277 285 285 283 282 282 282 281 278 281 277
34 30 28 29 26 30 31 32 32 36 41 40 30 25 22 7 13 6 3 351 335 345 327 308 291 292 299 308 301 297 292 296 295 301 304 302 288 288 283 286 286 284 280 277 275 276 277
32 28 27 29 31 33 33 34 37 41 48 42 40 33 28 20 19 13 12 351 259 327 338 318 292 293 296 292 278 283 287 286 287 290 291 290 289 286 277 290 286 281 283 280 279 285 287
30 29 34 34 32 32 32 36 42 44 47 43 41 35 29 19 23 17 14 358 344 322 295 319 281 281 285 285 285 282 282 286 288 287 291 284 283 283 275 280 272 283 290 294 286 288 292
31 33 33 30 28 30 34 37 43 46 44 44 46 44 38 23 19 25 21 14 273 21 357 304 300 287 286 289 295 296 295 285 290 288 285 282 278 279 275 275 279 283 300 294 290 305 323
32 29 30 27 28 32 35 39 45 47 46 46 46 52 41 28 40 27 21 29 32 279 144 259 215 307 277 292 303 294 288 289 305 311 328 293 283 276 278 278 275 295 304 311 305 287 318
29 27 27 24 27 31 35 37 42 48 47 47 53 52 49 31 33 33 27 32 49 232 195 240 274 232 256 239 293 281 273 274 292 282 298 302 297 279 279 277 281 297 301 308 287 291 318
21 24 24 24 25 30 34 37 40 45 52 52 50 51 49 39 18 50 44 35 42 263 270 278 256 283 245 258 270 295 295 290 298 272 281 307 302 300 293 285 279 306 305 298 315 331 329
15 19 21 22 24 28 33 37 40 45 51 60 58 57 54 51 31 256 226 68 83 181 245 262 244 260 259 253 242 227 243 208 251 298 311 319 304 297 305 316 314 345 329 322 325 325 327